| time (UTC) | temp F | wind direction | speed knots | gust knots | rain 1hr in | rain 24hr in | rain mn in | humidity % | barometer mb |
| 20260505200050 | 56 | 271 | 7.0 | 12.2 | 0.00 | 0.06 | 0.06 | 82 | 1011.2 |
| 20260505195717 | 0 | 158 | 2.6 | 5.2 | 0.00 | 0.00 | 0.00 | 1014.4 | |
| 20260505195704 | 82 | 90 | 5.2 | 8.7 | 0.00 | 0.00 | 0.00 | 43 | 1016.5 |
| 20260505195215 | 0 | 294 | 1.7 | 2.6 | 0.00 | 0.00 | 0.00 | 1014.5 | |
| 20260505194713 | 0 | 294 | 2.6 | 4.3 | 0.00 | 0.00 | 0.00 | 1014.6 | |
| 20260505194703 | 82 | 150 | 2.6 | 7.8 | 0.00 | 0.00 | 0.00 | 43 | 1016.9 |
| 20260505194549 | 56 | 269 | 5.2 | 11.3 | 0.00 | 0.06 | 0.06 | 82 | 1011.1 |
| 20260505194209 | 0 | 177 | 2.6 | 2.6 | 0.00 | 0.00 | 0.00 | 1014.5 | |
| 20260505194204 | 82 | 255 | 6.1 | 13.0 | 0.00 | 0.00 | 0.00 | 43 | 1016.8 |
| 20260505193705 | 0 | 276 | 1.7 | 1.7 | 0.00 | 0.00 | 0.00 | 1014.6 | |
| 20260505193703 | 82 | 295 | 4.3 | 12.2 | 0.00 | 0.00 | 0.00 | 42 | 1017.0 |
| 20260505193203 | 81 | 184 | 5.2 | 12.2 | 0.00 | 0.00 | 0.00 | 43 | 1017.0 |
| 20260505193048 | 56 | 257 | 6.1 | 12.2 | 0.00 | 0.06 | 0.06 | 82 | 1011.1 |
| 20260505192704 | 81 | 133 | 2.6 | 11.3 | 0.00 | 0.00 | 0.00 | 42 | 1017.1 |
| 20260505192701 | 0 | 239 | 3.5 | 4.3 | 0.00 | 0.00 | 0.00 | 1014.6 | |
| 20260505192203 | 81 | 288 | 5.2 | 11.3 | 0.00 | 0.00 | 0.00 | 42 | 1017.1 |
| 20260505192158 | 0 | 259 | 2.6 | 5.2 | 0.00 | 0.00 | 0.00 | 1014.6 | |
| 20260505191704 | 82 | 2 | 5.2 | 12.2 | 0.00 | 0.00 | 0.00 | 43 | 1017.2 |
| 20260505191656 | 0 | 340 | 6.1 | 8.7 | 0.00 | 0.00 | 0.00 | 1014.6 | |
| 20260505191549 | 56 | 268 | 5.2 | 10.4 | 0.00 | 0.06 | 0.06 | 80 | 1011.1 |
| 20260505191154 | 0 | 236 | 3.5 | 4.3 | 0.00 | 0.00 | 0.00 | 1014.5 | |
| 20260505190650 | 0 | 255 | 2.6 | 2.6 | 0.00 | 0.00 | 0.00 | 1014.6 | |
| 20260505190204 | 81 | 168 | 5.2 | 11.3 | 0.00 | 0.00 | 0.00 | 43 | 1017.3 |
| 20260505190150 | 0 | 264 | 2.6 | 2.6 | 0.00 | 0.00 | 0.00 | 1014.6 | |
| 20260505190047 | 57 | 259 | 6.1 | 12.2 | 0.00 | 0.06 | 0.06 | 79 | 1011.0 |
| 20260505185704 | 81 | 145 | 5.2 | 13.0 | 0.00 | 0.00 | 0.00 | 43 | 1017.3 |
| 20260505185647 | 0 | 348 | 3.5 | 5.2 | 0.00 | 0.00 | 0.00 | 1014.9 | |
| 20260505185204 | 81 | 265 | 5.2 | 13.9 | 0.00 | 0.00 | 0.00 | 43 | 1017.4 |
| 20260505185143 | 0 | 205 | 3.5 | 4.3 | 0.00 | 0.00 | 0.00 | 1014.9 | |
| 20260505184703 | 81 | 339 | 4.3 | 13.0 | 0.00 | 0.00 | 0.00 | 43 | 1017.3 |
| 20260505184639 | 0 | 49 | 0.9 | 0.9 | 0.00 | 0.00 | 0.00 | 1015.1 | |
| 20260505184547 | 58 | 276 | 7.8 | 12.2 | 0.00 | 0.06 | 0.06 | 76 | 1011.0 |
| 20260505184204 | 82 | 302 | 4.3 | 12.2 | 0.00 | 0.00 | 0.00 | 44 | 1017.4 |
| 20260505184136 | 0 | 194 | 2.6 | 2.6 | 0.00 | 0.00 | 0.00 | 1015.1 | |
| 20260505183704 | 81 | 310 | 6.1 | 19.1 | 0.00 | 0.00 | 0.00 | 43 | 1017.3 |
| 20260505183633 | 0 | 174 | 2.6 | 4.3 | 0.00 | 0.00 | 0.00 | 1015.1 | |
| 20260505183204 | 82 | 249 | 4.3 | 8.7 | 0.00 | 0.00 | 0.00 | 42 | 1017.4 |
| 20260505183131 | 0 | 172 | 4.3 | 5.2 | 0.00 | 0.00 | 0.00 | 1015.0 | |
| 20260505183047 | 59 | 253 | 6.1 | 12.2 | 0.00 | 0.06 | 0.06 | 76 | 1011.1 |
| 20260505182704 | 82 | 246 | 4.3 | 11.3 | 0.00 | 0.00 | 0.00 | 40 | 1017.4 |
| 20260505182627 | 0 | 19 | 0.9 | 0.9 | 0.00 | 0.00 | 0.00 | 1015.0 | |
| 20260505182203 | 82 | 221 | 2.6 | 7.0 | 0.00 | 0.00 | 0.00 | 41 | 1017.4 |
| 20260505182124 | 0 | 154 | 0.9 | 0.9 | 0.00 | 0.00 | 0.00 | 1015.1 | |
| 20260505181703 | 81 | 228 | 2.6 | 11.3 | 0.00 | 0.00 | 0.00 | 41 | 1017.6 |
| 20260505181620 | 0 | 155 | 1.7 | 2.6 | 0.00 | 0.00 | 0.00 | 1015.1 | |
| 20260505181606 | 60 | 300 | 4.3 | 13.0 | 0.00 | 0.06 | 0.06 | 75 | 1011.2 |
| 20260505181204 | 81 | 242 | 5.2 | 12.2 | 0.00 | 0.00 | 0.00 | 41 | 1017.6 |
| 20260505181118 | 0 | 350 | 0.0 | 0.9 | 0.00 | 0.00 | 0.00 | 1015.1 | |
| 20260505180703 | 81 | 121 | 5.2 | 11.3 | 0.00 | 0.00 | 0.00 | 40 | 1017.5 |
| 20260505180614 | 0 | 339 | 3.5 | 5.2 | 0.00 | 0.00 | 0.00 | 1015.3 | |
| 20260505180204 | 81 | 278 | 4.3 | 11.3 | 0.00 | 0.00 | 0.00 | 42 | 1017.7 |
| 20260505180112 | 0 | 95 | 1.7 | 2.6 | 0.00 | 0.00 | 0.00 | 1015.3 | |
| 20260505180100 | 60 | 259 | 7.0 | 12.2 | 0.00 | 0.06 | 0.06 | 76 | 1011.1 |
| 20260505175703 | 81 | 303 | 4.3 | 10.4 | 0.00 | 0.00 | 0.00 | 43 | 1017.6 |
| 20260505175607 | 0 | 249 | 4.3 | 5.2 | 0.00 | 0.00 | 0.00 | 1015.2 | |
| 20260505175204 | 81 | 129 | 3.5 | 8.7 | 0.00 | 0.00 | 0.00 | 43 | 1017.6 |
| 20260505175104 | 0 | 106 | 2.6 | 4.3 | 0.00 | 0.00 | 0.00 | 1015.4 | |
| 20260505174703 | 81 | 250 | 4.3 | 13.0 | 0.00 | 0.00 | 0.00 | 40 | 1017.6 |
| 20260505174601 | 0 | 243 | 3.5 | 4.3 | 0.00 | 0.00 | 0.00 | 1015.2 | |
| 20260505174546 | 60 | 267 | 5.2 | 12.2 | 0.00 | 0.06 | 0.06 | 75 | 1011.1 |
| 20260505174203 | 81 | 227 | 4.3 | 10.4 | 0.00 | 0.00 | 0.00 | 44 | 1017.7 |
| 20260505174056 | 0 | 269 | 2.6 | 2.6 | 0.00 | 0.00 | 0.00 | 1015.3 | |
| 20260505173553 | 0 | 288 | 0.9 | 0.9 | 0.00 | 0.00 | 0.00 | 1015.2 | |
| 20260505173050 | 0 | 192 | 0.9 | 2.6 | 0.00 | 0.00 | 0.00 | 1015.4 | |
| 20260505173044 | 62 | 250 | 9.6 | 12.2 | 0.00 | 0.06 | 0.06 | 73 | 1011.2 |
| 20260505172548 | 0 | 170 | 3.5 | 5.2 | 0.00 | 0.00 | 0.00 | 1015.4 | |
| 20260505172204 | 81 | 297 | 4.3 | 12.2 | 0.00 | 0.00 | 0.00 | 44 | 1017.9 |
| 20260505172044 | 0 | 186 | 4.3 | 6.1 | 0.00 | 0.00 | 0.00 | 1015.5 | |
| 20260505171703 | 80 | 49 | 5.2 | 14.8 | 0.00 | 0.00 | 0.00 | 45 | 1018.0 |
| 20260505171547 | 62 | 276 | 8.7 | 13.9 | 0.00 | 0.06 | 0.06 | 73 | 1011.3 |
| 20260505171539 | 0 | 224 | 0.9 | 0.9 | 0.00 | 0.00 | 0.00 | 1015.4 | |
| 20260505171036 | 0 | 313 | 0.0 | 0.9 | 0.00 | 0.00 | 0.00 | 1015.3 | |
| 20260505170704 | 81 | 214 | 2.6 | 7.8 | 0.00 | 0.00 | 0.00 | 45 | 1018.0 |
| 20260505170533 | 0 | 336 | 1.7 | 1.7 | 0.00 | 0.00 | 0.00 | 1015.3 | |
| 20260505170203 | 80 | 306 | 4.3 | 8.7 | 0.00 | 0.00 | 0.00 | 46 | 1018.1 |
| 20260505170042 | 62 | 246 | 8.7 | 13.9 | 0.00 | 0.06 | 0.06 | 75 | 1011.4 |
| 20260505170030 | 0 | 65 | 2.6 | 5.2 | 0.00 | 0.00 | 0.00 | 1015.5 | |
| 20260505165704 | 80 | 323 | 4.3 | 13.0 | 0.00 | 0.00 | 0.00 | 46 | 1018.4 |
| 20260505165525 | 0 | 174 | 2.6 | 2.6 | 0.00 | 0.00 | 0.00 | 1015.5 | |
| 20260505165203 | 79 | 277 | 5.2 | 11.3 | 0.00 | 0.00 | 0.00 | 47 | 1018.3 |
| 20260505165021 | 0 | 263 | 1.7 | 2.6 | 0.00 | 0.00 | 0.00 | 1015.3 | |
| 20260505164703 | 79 | 184 | 5.2 | 11.3 | 0.00 | 0.00 | 0.00 | 48 | 1018.3 |
| 20260505164547 | 62 | 250 | 7.0 | 13.0 | 0.00 | 0.06 | 0.06 | 74 | 1011.3 |
| 20260505164517 | 0 | 164 | 2.6 | 4.3 | 0.00 | 0.00 | 0.00 | 1015.4 | |
| 20260505164204 | 79 | 313 | 5.2 | 11.3 | 0.00 | 0.00 | 0.00 | 48 | 1018.3 |
| 20260505164015 | 0 | 175 | 4.3 | 5.2 | 0.00 | 0.00 | 0.00 | 1015.3 | |
| 20260505163703 | 79 | 281 | 2.6 | 8.7 | 0.00 | 0.00 | 0.00 | 48 | 1018.3 |
| 20260505163514 | 0 | 200 | 2.6 | 2.6 | 0.00 | 0.00 | 0.00 | 1015.3 | |
| 20260505163204 | 80 | 283 | 5.2 | 8.7 | 0.00 | 0.00 | 0.00 | 47 | 1018.4 |
| 20260505163046 | 62 | 269 | 10.4 | 16.5 | 0.00 | 0.06 | 0.06 | 73 | 1011.2 |
| 20260505163010 | 0 | 33 | 0.9 | 0.9 | 0.00 | 0.00 | 0.00 | 1015.4 | |
| 20260505162703 | 79 | 261 | 4.3 | 11.3 | 0.00 | 0.00 | 0.00 | 47 | 1018.6 |
| 20260505162503 | 0 | 168 | 2.6 | 2.6 | 0.00 | 0.00 | 0.00 | 1015.6 | |
| 20260505162203 | 79 | 297 | 2.6 | 6.1 | 0.00 | 0.00 | 0.00 | 48 | 1018.5 |
| 20260505162000 | 0 | 65 | 0.9 | 0.9 | 0.00 | 0.00 | 0.00 | 1015.2 | |
| 20260505161703 | 79 | 147 | 2.6 | 6.1 | 0.00 | 0.00 | 0.00 | 49 | 1018.6 |
| 20260505161541 | 63 | 282 | 8.7 | 14.8 | 0.00 | 0.06 | 0.06 | 72 | 1011.3 |
| 20260505161456 | 0 | 109 | 2.6 | 2.6 | 0.00 | 0.00 | 0.00 | 1015.6 | |
| 20260505161203 | 78 | 272 | 4.3 | 12.2 | 0.00 | 0.00 | 0.00 | 50 | 1018.5 |
| 20260505160954 | 0 | 307 | 0.9 | 0.9 | 0.00 | 0.00 | 0.00 | 1015.6 | |
| 20260505160452 | 0 | 267 | 1.7 | 1.7 | 0.00 | 0.00 | 0.00 | 1015.5 | |
| 20260505160204 | 78 | 147 | 6.1 | 13.9 | 0.00 | 0.00 | 0.00 | 51 | 1018.5 |
| 20260505153203 | 77 | 311 | 4.3 | 11.3 | 0.00 | 0.00 | 0.00 | 52 | 1018.7 |
| 20260505153044 | 63 | 263 | 7.8 | 16.5 | 0.00 | 0.07 | 0.06 | 71 | 1011.3 |
| 20260505152928 | 0 | 148 | 4.3 | 5.2 | 0.00 | 0.00 | 0.00 | 1015.7 | |
| 20260505152703 | 76 | 257 | 2.6 | 8.7 | 0.00 | 0.00 | 0.00 | 53 | 1018.6 |
| 20260505152425 | 0 | 180 | 1.7 | 1.7 | 0.00 | 0.00 | 0.00 | 1015.3 | |
| 20260505152203 | 76 | 190 | 3.5 | 11.3 | 0.00 | 0.00 | 0.00 | 52 | 1018.9 |
| 20260505151920 | 0 | 211 | 0.9 | 1.7 | 0.00 | 0.00 | 0.00 | 1015.4 | |
| 20260505151703 | 76 | 259 | 4.3 | 11.3 | 0.00 | 0.00 | 0.00 | 53 | 1018.8 |
| 20260505151539 | 61 | 298 | 8.7 | 14.8 | 0.00 | 0.07 | 0.06 | 77 | 1011.4 |
| 20260505151416 | 0 | 172 | 7.8 | 11.3 | 0.00 | 0.00 | 0.00 | 1015.4 | |
| 20260505151204 | 76 | 287 | 4.3 | 10.4 | 0.00 | 0.00 | 0.00 | 54 | 1018.7 |
| 20260505150914 | 0 | 162 | 2.6 | 2.6 | 0.00 | 0.00 | 0.00 | 1015.2 | |
| 20260505150410 | 0 | 210 | 3.5 | 4.3 | 0.00 | 0.00 | 0.00 | 1015.3 | |
| 20260505150203 | 75 | 282 | 3.5 | 10.4 | 0.00 | 0.00 | 0.00 | 54 | 1018.9 |
| 20260505140334 | 0 | 225 | 1.7 | 1.7 | 0.00 | 0.00 | 0.00 | 1015.3 | |
| 20260505140204 | 71 | 291 | 4.3 | 10.4 | 0.00 | 0.00 | 0.00 | 59 | 1018.9 |
| 20260505130258 | 0 | 74 | 0.9 | 0.9 | 0.00 | 0.00 | 0.00 | 1015.1 | |
| 20260505130203 | 67 | 289 | 6.1 | 18.2 | 0.00 | 0.00 | 0.00 | 66 | 1019.2 |
| 20260505124748 | 0 | 72 | 0.0 | 0.9 | 0.00 | 0.00 | 0.00 | 1015.2 | |
| 20260505124704 | 67 | 291 | 5.2 | 10.4 | 0.00 | 0.00 | 0.00 | 66 | 1019.1 |
| 20260505124534 | 65 | 260 | 11.3 | 14.8 | 0.00 | 0.07 | 0.06 | 77 | 1011.7 |
| 20260505124245 | 0 | 33 | 0.9 | 1.7 | 0.00 | 0.00 | 0.00 | 1015.2 | |
| 20260505124203 | 66 | 296 | 3.5 | 10.4 | 0.00 | 0.00 | 0.00 | 67 | 1019.1 |
| 20260505123740 | 0 | 83 | 0.9 | 0.9 | 0.00 | 0.00 | 0.00 | 1015.2 | |
| 20260505123704 | 66 | 280 | 5.2 | 10.4 | 0.00 | 0.00 | 0.00 | 67 | 1019.2 |
| 20260505123237 | 0 | 38 | 0.0 | 0.0 | 0.00 | 0.00 | 0.00 | 1015.1 | |
| 20260505123046 | 64 | 240 | 9.6 | 13.9 | 0.00 | 0.07 | 0.06 | 78 | 1011.6 |
| 20260505122734 | 0 | 44 | 0.9 | 0.9 | 0.00 | 0.00 | 0.00 | 1014.9 | |
| 20260505122703 | 65 | 268 | 3.5 | 7.8 | 0.00 | 0.00 | 0.00 | 68 | 1019.1 |
| 20260505122231 | 0 | 54 | 0.0 | 0.9 | 0.00 | 0.00 | 0.00 | 1014.9 | |
| 20260505122204 | 65 | 243 | 2.6 | 7.8 | 0.00 | 0.00 | 0.00 | 69 | 1018.9 |
| 20260505121728 | 0 | 72 | 0.0 | 0.0 | 0.00 | 0.00 | 0.00 | 1015.1 | |
| 20260505121535 | 65 | 263 | 8.7 | 13.9 | 0.00 | 0.07 | 0.06 | 78 | 1011.6 |
| 20260505121224 | 0 | 65 | 0.9 | 0.9 | 0.00 | 0.00 | 0.00 | 1014.9 | |
| 20260505121204 | 64 | 148 | 2.6 | 7.8 | 0.00 | 0.00 | 0.00 | 70 | 1018.8 |
| 20260505120721 | 0 | 41 | 0.0 | 0.0 | 0.00 | 0.00 | 0.00 | 1015.0 | |
| 20260505120704 | 64 | 264 | 2.6 | 8.7 | 0.00 | 0.00 | 0.00 | 70 | 1018.9 |
| 20260505120217 | 0 | 37 | 0.0 | 0.0 | 0.00 | 0.00 | 0.00 | 1014.9 | |
| 20260505120039 | 64 | 248 | 7.0 | 13.0 | 0.00 | 0.07 | 0.06 | 80 | 1011.5 |
| 20260505115716 | 0 | 67 | 0.0 | 0.0 | 0.00 | 0.00 | 0.00 | 1014.9 | |
| 20260505115214 | 0 | 31 | 0.0 | 0.9 | 0.00 | 0.00 | 0.00 | 1015.0 | |
| 20260505115204 | 63 | 314 | 2.6 | 7.8 | 0.00 | 0.00 | 0.00 | 72 | 1019.0 |
| 20260505114711 | 0 | 39 | 0.0 | 0.0 | 0.00 | 0.00 | 0.00 | 1014.7 | |
| 20260505114704 | 62 | 292 | 2.6 | 6.1 | 0.00 | 0.00 | 0.00 | 73 | 1018.8 |
| 20260505114532 | 64 | 288 | 7.0 | 15.6 | 0.00 | 0.08 | 0.06 | 82 | 1011.6 |
| 20260505114207 | 0 | 64 | 0.0 | 0.0 | 0.00 | 0.00 | 0.00 | 1014.6 | |
| 20260505114203 | 62 | 288 | 2.6 | 6.1 | 0.00 | 0.00 | 0.00 | 74 | 1019.0 |
| 20260505113704 | 61 | 299 | 2.6 | 7.0 | 0.00 | 0.00 | 0.00 | 74 | 1018.8 |
| 20260505113204 | 61 | 287 | 2.6 | 7.0 | 0.00 | 0.00 | 0.00 | 75 | 1018.8 |
| 20260505113200 | 0 | 62 | 0.0 | 0.0 | 0.00 | 0.00 | 0.00 | 1014.6 | |
| 20260505113032 | 63 | 261 | 7.8 | 13.9 | 0.06 | 0.08 | 0.06 | 85 | 1011.8 |
| 20260505112656 | 0 | 59 | 0.0 | 0.0 | 0.00 | 0.00 | 0.00 | 1014.6 | |
| 20260505112204 | 60 | 311 | 1.7 | 6.1 | 0.00 | 0.00 | 0.00 | 76 | 1018.8 |
| 20260505112154 | 0 | 34 | 0.0 | 0.0 | 0.00 | 0.00 | 0.00 | 1014.2 | |
| 20260505111703 | 60 | 298 | 1.7 | 6.1 | 0.00 | 0.00 | 0.00 | 76 | 1018.7 |
| 20260505111653 | 0 | 80 | 0.0 | 0.0 | 0.00 | 0.00 | 0.00 | 1014.3 | |
| 20260505111535 | 62 | 257 | 5.2 | 10.4 | 0.06 | 0.08 | 0.06 | 88 | 1011.8 |
| 20260505111204 | 60 | 258 | 3.5 | 8.7 | 0.00 | 0.00 | 0.00 | 76 | 1018.6 |
| 20260505111149 | 0 | 71 | 0.0 | 0.0 | 0.00 | 0.00 | 0.00 | 1014.4 | |
| 20260505110703 | 60 | 339 | 2.6 | 6.1 | 0.00 | 0.00 | 0.00 | 76 | 1018.6 |
| 20260505110646 | 0 | 48 | 0.0 | 0.0 | 0.00 | 0.00 | 0.00 | 1014.5 | |
| 20260505110203 | 59 | 319 | 3.5 | 6.1 | 0.00 | 0.00 | 0.00 | 77 | 1018.6 |
| 20260505110143 | 0 | 51 | 0.0 | 0.0 | 0.00 | 0.00 | 0.00 | 1014.1 | |
| 20260505102119 | 0 | 62 | 0.0 | 0.0 | 0.00 | 0.00 | 0.00 | 1014.1 | |
| 20260505101618 | 0 | 47 | 0.0 | 0.0 | 0.00 | 0.00 | 0.00 | 1014.3 | |
| 20260505101526 | 65 | 231 | 9.6 | 14.8 | 0.00 | 0.02 | 0.00 | 72 | 1011.9 |
| 20260505101203 | 58 | 246 | 2.6 | 7.8 | 0.00 | 0.00 | 0.00 | 79 | 1018.0 |
| 20260505101113 | 0 | 42 | 0.0 | 0.0 | 0.00 | 0.00 | 0.00 | 1014.3 | |
| 20260505100703 | 58 | 266 | 1.7 | 4.3 | 0.00 | 0.00 | 0.00 | 79 | 1018.0 |
| 20260505100610 | 0 | 62 | 0.0 | 0.0 | 0.00 | 0.00 | 0.00 | 1014.3 | |
| 20260505100107 | 0 | 33 | 0.0 | 0.0 | 0.00 | 0.00 | 0.00 | 1014.3 | |
| 20260505100025 | 65 | 249 | 7.8 | 14.8 | 0.00 | 0.02 | 0.00 | 71 | 1011.8 |
| 20260505095703 | 58 | 278 | 1.7 | 5.2 | 0.00 | 0.00 | 0.00 | 79 | 1017.8 |
| 20260505095603 | 0 | 44 | 0.0 | 0.0 | 0.00 | 0.00 | 0.00 | 1014.2 | |
| 20260505095204 | 58 | 284 | 1.7 | 5.2 | 0.00 | 0.00 | 0.00 | 79 | 1017.8 |
| 20260505095100 | 0 | 38 | 0.0 | 0.9 | 0.00 | 0.00 | 0.00 | 1014.0 | |
| 20260505094703 | 58 | 305 | 2.6 | 4.3 | 0.00 | 0.00 | 0.00 | 78 | 1017.7 |
| 20260505094556 | 0 | 55 | 0.0 | 0.0 | 0.00 | 0.00 | 0.00 | 1014.1 | |
| 20260505094523 | 62 | 263 | 8.7 | 16.5 | 0.00 | 0.03 | 0.00 | 74 | 1011.8 |
| 20260505094052 | 0 | 28 | 0.0 | 0.0 | 0.00 | 0.00 | 0.00 | 1014.3 | |
| 20260505093703 | 58 | 263 | 2.6 | 6.1 | 0.00 | 0.00 | 0.00 | 78 | 1017.8 |
| 20260505093549 | 0 | 28 | 0.0 | 0.0 | 0.00 | 0.00 | 0.00 | 1014.1 | |
| 20260505093204 | 58 | 294 | 1.7 | 5.2 | 0.00 | 0.00 | 0.00 | 77 | 1017.6 |
| 20260505093047 | 0 | 38 | 0.0 | 0.9 | 0.00 | 0.00 | 0.00 | 1014.1 | |
| 20260505093022 | 65 | 270 | 7.8 | 14.8 | 0.00 | 0.03 | 0.00 | 70 | 1011.8 |
| 20260505092703 | 58 | 281 | 0.9 | 4.3 | 0.00 | 0.00 | 0.00 | 77 | 1017.6 |
| 20260505092544 | 0 | 41 | 0.0 | 0.9 | 0.00 | 0.00 | 0.00 | 1014.2 | |
| 20260505092203 | 59 | 282 | 2.6 | 5.2 | 0.00 | 0.00 | 0.00 | 77 | 1017.7 |
| 20260505092042 | 0 | 48 | 0.0 | 0.0 | 0.00 | 0.00 | 0.00 | 1014.2 | |
| 20260505091703 | 59 | 288 | 2.6 | 5.2 | 0.00 | 0.00 | 0.00 | 77 | 1017.6 |
| 20260505091538 | 0 | 36 | 0.0 | 0.0 | 0.00 | 0.00 | 0.00 | 1014.2 | |
| 20260505091521 | 65 | 234 | 7.0 | 13.0 | 0.00 | 0.03 | 0.00 | 71 | 1011.7 |
| 20260505091204 | 58 | 299 | 1.7 | 4.3 | 0.00 | 0.00 | 0.00 | 77 | 1017.6 |
| 20260505091037 | 0 | 24 | 0.0 | 0.0 | 0.00 | 0.00 | 0.00 | 1014.0 | |
| 20260505090703 | 59 | 264 | 2.6 | 4.3 | 0.00 | 0.00 | 0.00 | 77 | 1017.6 |
| 20260505090534 | 0 | 41 | 0.0 | 0.0 | 0.00 | 0.00 | 0.00 | 1013.9 | |
| 20260505090203 | 59 | 240 | 1.7 | 7.8 | 0.00 | 0.00 | 0.00 | 76 | 1017.6 |
| 20260505090032 | 0 | 56 | 0.0 | 0.0 | 0.00 | 0.00 | 0.00 | 1013.9 | |
| 20260505090018 | 62 | 256 | 8.7 | 13.9 | 0.00 | 0.03 | 0.00 | 76 | 1011.7 |
| 20260505085703 | 59 | 280 | 2.6 | 7.0 | 0.00 | 0.00 | 0.00 | 76 | 1017.6 |
| 20260505085530 | 0 | 355 | 0.0 | 0.0 | 0.00 | 0.00 | 0.00 | 1013.9 | |
| 20260505085204 | 59 | 242 | 1.7 | 4.3 | 0.00 | 0.00 | 0.00 | 76 | 1017.5 |
| 20260505085028 | 0 | 350 | 0.0 | 0.0 | 0.00 | 0.00 | 0.00 | 1013.8 | |
| 20260505084704 | 59 | 262 | 1.7 | 4.3 | 0.00 | 0.00 | 0.00 | 76 | 1017.5 |
| 20260505084526 | 0 | 351 | 0.0 | 0.0 | 0.00 | 0.00 | 0.00 | 1013.7 | |
| 20260505084517 | 63 | 258 | 6.1 | 13.9 | 0.00 | 0.06 | 0.00 | 74 | 1011.7 |
| 20260505084023 | 0 | 21 | 0.0 | 0.0 | 0.00 | 0.00 | 0.00 | 1013.7 | |
| 20260505083703 | 59 | 310 | 2.6 | 5.2 | 0.00 | 0.00 | 0.00 | 76 | 1017.6 |
| 20260505083520 | 0 | 21 | 0.0 | 0.0 | 0.00 | 0.00 | 0.00 | 1013.7 | |
| 20260505083204 | 59 | 340 | 0.9 | 5.2 | 0.00 | 0.00 | 0.00 | 76 | 1017.6 |
| 20260505083017 | 0 | 22 | 0.0 | 0.0 | 0.00 | 0.00 | 0.00 | 1013.6 | |
| 20260505082704 | 59 | 325 | 1.7 | 4.3 | 0.00 | 0.00 | 0.00 | 76 | 1017.6 |
| 20260505082512 | 0 | 0 | 0.0 | 0.0 | 0.00 | 0.00 | 0.00 | 1013.6 | |
| 20260505082009 | 0 | 358 | 0.0 | 0.0 | 0.00 | 0.00 | 0.00 | 1013.6 | |
| 20260505081704 | 60 | 306 | 2.6 | 4.3 | 0.00 | 0.00 | 0.00 | 75 | 1017.5 |
| 20260505081521 | 63 | 293 | 8.7 | 12.2 | 0.00 | 0.06 | 0.00 | 74 | 1011.6 |
| 20260505081506 | 0 | 8 | 0.0 | 0.0 | 0.00 | 0.00 | 0.00 | 1013.8 | |
| 20260505081204 | 60 | 284 | 1.7 | 4.3 | 0.00 | 0.00 | 0.00 | 75 | 1017.6 |
| 20260505081003 | 0 | 15 | 0.0 | 0.0 | 0.00 | 0.00 | 0.00 | 1013.6 | |
| 20260505080704 | 60 | 319 | 1.7 | 5.2 | 0.00 | 0.00 | 0.00 | 74 | 1017.4 |
| 20260505080459 | 0 | 13 | 0.0 | 0.0 | 0.00 | 0.00 | 0.00 | 1013.6 | |
| 20260505080204 | 60 | 288 | 1.7 | 7.0 | 0.00 | 0.00 | 0.00 | 74 | 1017.3 |
| 20260505080011 | 61 | 254 | 6.1 | 11.3 | 0.00 | 0.06 | 0.00 | 76 | 1011.7 |
| 20260505075955 | 0 | 13 | 0.0 | 0.0 | 0.00 | 0.00 | 0.00 | 1013.5 | |
| 20260505075703 | 60 | 260 | 1.7 | 5.2 | 0.00 | 0.00 | 0.00 | 74 | 1017.4 |
| 20260505075452 | 0 | 15 | 0.0 | 0.0 | 0.00 | 0.00 | 0.00 | 1013.8 | |
| 20260505074949 | 0 | 13 | 0.0 | 0.0 | 0.00 | 0.00 | 0.00 | 1013.9 | |
| 20260505074703 | 60 | 303 | 2.6 | 4.3 | 0.00 | 0.00 | 0.00 | 73 | 1017.3 |
| 20260505074511 | 60 | 276 | 7.0 | 12.2 | 0.00 | 0.13 | 0.00 | 79 | 1011.7 |
| 20260505074447 | 0 | 354 | 0.0 | 0.0 | 0.00 | 0.00 | 0.00 | 1014.0 | |
| 20260505074204 | 60 | 284 | 2.6 | 7.0 | 0.00 | 0.00 | 0.00 | 73 | 1017.2 |
| 20260505073943 | 0 | 317 | 0.0 | 0.9 | 0.00 | 0.00 | 0.00 | 1014.0 | |
| 20260505073703 | 60 | 295 | 1.7 | 5.2 | 0.00 | 0.00 | 0.00 | 73 | 1017.2 |
| 20260505073441 | 0 | 2 | 0.0 | 0.0 | 0.00 | 0.00 | 0.00 | 1013.9 | |
| 20260505073203 | 60 | 258 | 2.6 | 7.8 | 0.00 | 0.00 | 0.00 | 73 | 1017.3 |
| 20260505073011 | 61 | 285 | 8.7 | 13.0 | 0.00 | 0.13 | 0.00 | 77 | 1011.7 |
| 20260505072938 | 0 | 2 | 0.0 | 0.0 | 0.00 | 0.00 | 0.00 | 1013.8 | |
| 20260505072703 | 61 | 255 | 2.6 | 6.1 | 0.00 | 0.00 | 0.00 | 72 | 1017.2 |
| 20260505072434 | 0 | 0 | 0.0 | 0.0 | 0.00 | 0.00 | 0.00 | 1014.0 | |
| 20260505072203 | 61 | 341 | 2.6 | 5.2 | 0.00 | 0.00 | 0.00 | 72 | 1017.1 |
| 20260505071930 | 0 | 25 | 0.0 | 0.0 | 0.00 | 0.00 | 0.00 | 1013.9 | |
| 20260505071704 | 61 | 308 | 2.6 | 6.1 | 0.00 | 0.00 | 0.00 | 72 | 1017.1 |
| 20260505071507 | 60 | 271 | 7.0 | 12.2 | 0.00 | 0.13 | 0.00 | 78 | 1011.7 |
| 20260505071427 | 0 | 329 | 0.0 | 0.0 | 0.00 | 0.00 | 0.00 | 1014.0 | |
| 20260505071203 | 61 | 285 | 2.6 | 7.0 | 0.00 | 0.00 | 0.00 | 72 | 1017.1 |
| 20260505070925 | 0 | 4 | 0.0 | 0.0 | 0.00 | 0.00 | 0.00 | 1014.1 | |
| 20260505070704 | 61 | 279 | 2.6 | 6.1 | 0.00 | 0.00 | 0.00 | 72 | 1016.9 |
| 20260505070421 | 0 | 352 | 0.0 | 0.0 | 0.00 | 0.00 | 0.00 | 1014.3 | |
| 20260505070203 | 61 | 299 | 1.7 | 6.1 | 0.00 | 0.00 | 0.00 | 72 | 1017.1 |
| 20260505070004 | 59 | 268 | 5.2 | 11.3 | 0.00 | 0.13 | 0.00 | 79 | 1011.8 |
| 20260505065917 | 0 | 25 | 0.0 | 0.0 | 0.00 | 0.00 | 0.00 | 1014.1 | |
| 20260505065704 | 61 | 346 | 1.7 | 5.2 | 0.00 | 0.00 | 0.00 | 72 | 1017.1 |
| 20260505065413 | 0 | 58 | 0.0 | 0.0 | 0.00 | 0.00 | 0.00 | 1014.2 | |
| 20260505065204 | 61 | 264 | 1.7 | 5.2 | 0.00 | 0.00 | 0.00 | 71 | 1017.0 |
| 20260505064910 | 0 | 44 | 0.0 | 0.0 | 0.00 | 0.00 | 0.00 | 1014.3 | |
| 20260505064703 | 61 | 281 | 2.6 | 5.2 | 0.00 | 0.00 | 0.00 | 71 | 1017.0 |
| 20260505064503 | 59 | 271 | 6.1 | 11.3 | 0.00 | 0.16 | 0.00 | 80 | 1011.9 |
| 20260505064407 | 0 | 30 | 0.0 | 0.0 | 0.00 | 0.00 | 0.00 | 1014.4 | |
| 20260505064204 | 61 | 266 | 1.7 | 5.2 | 0.00 | 0.00 | 0.00 | 71 | 1017.1 |
| 20260505063906 | 0 | 31 | 0.0 | 0.0 | 0.00 | 0.00 | 0.00 | 1014.5 | |
| 20260505063704 | 61 | 300 | 3.5 | 7.0 | 0.00 | 0.00 | 0.00 | 71 | 1017.3 |
| 20260505063402 | 0 | 28 | 0.0 | 0.0 | 0.00 | 0.00 | 0.00 | 1014.8 | |
| 20260505063203 | 62 | 265 | 3.5 | 6.1 | 0.00 | 0.00 | 0.00 | 70 | 1017.3 |
| 20260505063106 | 58 | 294 | 6.1 | 12.2 | 0.00 | 0.16 | 0.00 | 80 | 1011.8 |
| 20260505062859 | 0 | 25 | 0.0 | 0.0 | 0.00 | 0.00 | 0.00 | 1014.5 | |
| 20260505062356 | 0 | 11 | 0.0 | 0.0 | 0.00 | 0.00 | 0.00 | 1014.7 | |
| 20260505062204 | 62 | 257 | 2.6 | 7.8 | 0.00 | 0.00 | 0.00 | 69 | 1017.3 |
| 20260505061852 | 0 | 17 | 0.0 | 0.0 | 0.00 | 0.00 | 0.00 | 1014.7 | |
| 20260505061704 | 62 | 273 | 4.3 | 7.8 | 0.00 | 0.00 | 0.00 | 69 | 1017.4 |
| 20260505061601 | 58 | 280 | 7.0 | 12.2 | 0.00 | 0.16 | 0.00 | 80 | 1011.9 |
| 20260505061351 | 0 | 26 | 0.0 | 0.0 | 0.00 | 0.00 | 0.00 | 1014.9 | |
| 20260505061203 | 62 | 336 | 1.7 | 7.8 | 0.00 | 0.00 | 0.00 | 69 | 1017.2 |
| 20260505060848 | 0 | 27 | 0.0 | 0.0 | 0.00 | 0.00 | 0.00 | 1014.7 | |
| 20260505060703 | 62 | 239 | 3.5 | 5.2 | 0.00 | 0.00 | 0.00 | 68 | 1017.1 |
| 20260505060344 | 0 | 25 | 0.0 | 0.0 | 0.00 | 0.00 | 0.00 | 1015.1 | |
| 20260505060203 | 62 | 312 | 2.6 | 6.1 | 0.00 | 0.00 | 0.00 | 68 | 1017.2 |
| 20260505060056 | 57 | 324 | 4.3 | 10.4 | 0.00 | 0.16 | 0.00 | 82 | 1011.9 |
| 20260505055840 | 0 | 27 | 0.0 | 0.0 | 0.00 | 0.00 | 0.00 | 1014.9 | |
| 20260505055703 | 63 | 251 | 2.6 | 7.8 | 0.00 | 0.00 | 0.00 | 67 | 1017.1 |
| 20260505055336 | 0 | 26 | 0.0 | 0.0 | 0.00 | 0.00 | 0.00 | 1015.0 | |
| 20260505055203 | 63 | 310 | 4.3 | 12.2 | 0.00 | 0.00 | 0.00 | 67 | 1017.2 |
| 20260505054834 | 0 | 26 | 0.0 | 0.0 | 0.00 | 0.00 | 0.00 | 1015.0 | |
| 20260505054555 | 56 | 273 | 4.3 | 7.8 | 0.00 | 0.16 | 0.00 | 81 | 1011.9 |
| 20260505054331 | 0 | 26 | 0.0 | 0.0 | 0.00 | 0.00 | 0.00 | 1015.0 | |
| 20260505054204 | 63 | 315 | 2.6 | 7.8 | 0.00 | 0.00 | 0.00 | 67 | 1017.4 |
| 20260505053829 | 0 | 26 | 0.0 | 0.0 | 0.00 | 0.00 | 0.00 | 1015.1 | |
| 20260505053704 | 63 | 296 | 3.5 | 8.7 | 0.00 | 0.00 | 0.00 | 67 | 1017.4 |
| 20260505053326 | 0 | 25 | 0.0 | 0.0 | 0.00 | 0.00 | 0.00 | 1015.2 | |
| 20260505053203 | 63 | 319 | 1.7 | 7.8 | 0.00 | 0.00 | 0.00 | 67 | 1017.4 |
| 20260505053055 | 56 | 278 | 4.3 | 8.7 | 0.00 | 0.16 | 0.00 | 83 | 1011.9 |
| 20260505052822 | 0 | 4 | 0.0 | 0.0 | 0.00 | 0.00 | 0.00 | 1015.2 | |
| 20260505052703 | 63 | 270 | 2.6 | 6.1 | 0.00 | 0.00 | 0.00 | 68 | 1017.5 |
| 20260505052319 | 0 | 359 | 0.0 | 0.0 | 0.00 | 0.00 | 0.00 | 1015.4 | |
| 20260505052203 | 63 | 291 | 1.7 | 5.2 | 0.00 | 0.00 | 0.00 | 67 | 1017.5 |
| 20260505051817 | 0 | 327 | 0.0 | 0.0 | 0.00 | 0.00 | 0.00 | 1015.3 | |
| 20260505051703 | 63 | 304 | 3.5 | 6.1 | 0.00 | 0.00 | 0.00 | 66 | 1017.5 |
| 20260505051555 | 55 | 247 | 2.6 | 7.8 | 0.00 | 0.16 | 0.00 | 84 | 1012.0 |
| 20260505051314 | 0 | 347 | 0.0 | 0.0 | 0.00 | 0.00 | 0.00 | 1015.3 | |
| 20260505051203 | 63 | 166 | 1.7 | 4.3 | 0.00 | 0.00 | 0.00 | 66 | 1017.7 |
| 20260505050812 | 0 | 4 | 0.0 | 0.0 | 0.00 | 0.00 | 0.00 | 1015.2 | |
| 20260505050703 | 63 | 278 | 1.7 | 8.7 | 0.00 | 0.00 | 0.00 | 66 | 1017.5 |
| 20260505050311 | 0 | 331 | 0.0 | 0.0 | 0.00 | 0.00 | 0.00 | 1015.1 | |
| 20260505050203 | 64 | 226 | 2.6 | 7.0 | 0.00 | 0.00 | 0.00 | 66 | 1017.5 |
| 20260505041740 | 0 | 14 | 0.0 | 0.0 | 0.00 | 0.00 | 0.00 | 1015.4 | |
| 20260505041704 | 64 | 236 | 2.6 | 6.1 | 0.00 | 0.00 | 0.00 | 66 | 1017.4 |
| 20260505041559 | 54 | 292 | 5.2 | 8.7 | 0.00 | 0.16 | 0.00 | 85 | 1012.1 |
| 20260505041237 | 0 | 15 | 0.0 | 0.0 | 0.00 | 0.00 | 0.00 | 1015.1 | |
| 20260505040735 | 0 | 347 | 0.0 | 0.0 | 0.00 | 0.00 | 0.00 | 1015.5 | |
| 20260505040704 | 64 | 317 | 2.6 | 7.8 | 0.00 | 0.00 | 0.00 | 66 | 1017.5 |
| 20260505040232 | 0 | 26 | 0.0 | 0.0 | 0.00 | 0.00 | 0.00 | 1015.3 | |
| 20260505040203 | 64 | 223 | 2.6 | 7.0 | 0.00 | 0.00 | 0.00 | 66 | 1017.4 |
| 20260505040059 | 55 | 300 | 2.6 | 7.0 | 0.00 | 0.16 | 0.00 | 84 | 1012.1 |
| 20260505035729 | 0 | 13 | 0.0 | 0.0 | 0.00 | 0.00 | 0.00 | 1015.3 | |
| 20260505035703 | 64 | 309 | 2.6 | 7.8 | 0.00 | 0.00 | 0.00 | 65 | 1017.3 |
| 20260505035225 | 0 | 15 | 0.0 | 0.0 | 0.00 | 0.00 | 0.00 | 1015.4 | |
| 20260505035203 | 64 | 309 | 4.3 | 7.0 | 0.00 | 0.00 | 0.00 | 65 | 1017.3 |
| 20260505034722 | 0 | 6 | 0.0 | 0.0 | 0.00 | 0.00 | 0.00 | 1015.5 | |
| 20260505034704 | 64 | 296 | 5.2 | 8.7 | 0.00 | 0.00 | 0.00 | 65 | 1017.1 |
| 20260505034606 | 54 | 292 | 3.5 | 7.0 | 0.00 | 0.16 | 0.00 | 84 | 1012.3 |
| 20260505034219 | 0 | 330 | 0.0 | 0.0 | 0.00 | 0.00 | 0.00 | 1015.4 | |
| 20260505034203 | 65 | 259 | 3.5 | 7.8 | 0.00 | 0.00 | 0.00 | 65 | 1017.2 |
| 20260505033715 | 0 | 357 | 0.0 | 0.0 | 0.00 | 0.00 | 0.00 | 1015.4 | |
| 20260505033704 | 65 | 278 | 2.6 | 8.7 | 0.00 | 0.00 | 0.00 | 65 | 1017.2 |
| 20260505033213 | 0 | 354 | 0.0 | 0.0 | 0.00 | 0.00 | 0.00 | 1015.4 | |
| 20260505033204 | 64 | 194 | 2.6 | 7.0 | 0.00 | 0.00 | 0.00 | 65 | 1017.1 |
| 20260505033047 | 54 | 277 | 2.6 | 7.8 | 0.00 | 0.16 | 0.00 | 83 | 1012.2 |
| 20260505032711 | 0 | 350 | 0.0 | 0.0 | 0.00 | 0.00 | 0.00 | 1015.5 | |
| 20260505032704 | 65 | 98 | 4.3 | 7.8 | 0.00 | 0.00 | 0.00 | 65 | 1017.3 |
| 20260505032206 | 0 | 5 | 0.0 | 0.0 | 0.00 | 0.00 | 0.00 | 1015.4 | |
| 20260505031704 | 0 | 5 | 0.0 | 0.0 | 0.00 | 0.00 | 0.00 | 1015.7 | |
| 20260505031547 | 55 | 307 | 5.2 | 9.6 | 0.00 | 0.16 | 0.00 | 83 | 1012.1 |
| 20260505031204 | 65 | 8 | 2.6 | 7.0 | 0.00 | 0.00 | 0.00 | 65 | 1017.2 |
| 20260505031200 | 0 | 339 | 0.0 | 0.0 | 0.00 | 0.00 | 0.00 | 1015.9 | |
| 20260505030657 | 0 | 346 | 0.0 | 0.0 | 0.00 | 0.00 | 0.00 | 1015.6 | |
| 20260505030203 | 65 | 299 | 4.3 | 10.4 | 0.00 | 0.00 | 0.00 | 64 | 1017.3 |
| 20260505030153 | 0 | 349 | 0.0 | 0.0 | 0.00 | 0.00 | 0.00 | 1015.7 | |
| 20260505030049 | 55 | 295 | 5.2 | 9.6 | 0.00 | 0.16 | 0.00 | 83 | 1012.3 |
| 20260505025704 | 65 | 215 | 3.5 | 8.7 | 0.00 | 0.00 | 0.00 | 64 | 1017.4 |
| 20260505025649 | 0 | 346 | 0.0 | 0.0 | 0.00 | 0.00 | 0.00 | 1015.4 | |
| 20260505025148 | 0 | 316 | 0.0 | 0.9 | 0.00 | 0.00 | 0.00 | 1015.5 | |
| 20260505024703 | 65 | 307 | 3.5 | 7.8 | 0.00 | 0.00 | 0.00 | 64 | 1017.4 |
| 20260505024645 | 0 | 339 | 0.0 | 0.0 | 0.00 | 0.00 | 0.00 | 1015.4 | |
| 20260505024547 | 55 | 281 | 5.2 | 8.7 | 0.00 | 0.16 | 0.00 | 84 | 1012.3 |
| 20260505024203 | 65 | 259 | 3.5 | 11.3 | 0.00 | 0.00 | 0.00 | 65 | 1017.2 |
| 20260505024142 | 0 | 0 | 0.0 | 0.0 | 0.00 | 0.00 | 0.00 | 1015.3 | |
| 20260505023703 | 65 | 289 | 2.6 | 7.8 | 0.00 | 0.00 | 0.00 | 65 | 1016.9 |
| 20260505023640 | 0 | 2 | 0.0 | 0.0 | 0.00 | 0.00 | 0.00 | 1015.1 | |
| 20260505023203 | 65 | 126 | 2.6 | 10.4 | 0.00 | 0.00 | 0.00 | 66 | 1017.1 |
| 20260505023137 | 0 | 353 | 0.0 | 0.0 | 0.00 | 0.00 | 0.00 | 1015.2 | |
| 20260505023047 | 55 | 296 | 6.1 | 10.4 | 0.00 | 0.16 | 0.00 | 83 | 1012.3 |
| 20260505022704 | 65 | 279 | 4.3 | 10.4 | 0.00 | 0.00 | 0.00 | 66 | 1017.1 |
| 20260505022634 | 0 | 329 | 0.0 | 0.0 | 0.00 | 0.00 | 0.00 | 1015.2 | |
| 20260505022203 | 66 | 318 | 2.6 | 7.0 | 0.00 | 0.00 | 0.00 | 66 | 1017.2 |
| 20260505022131 | 0 | 0 | 0.0 | 0.0 | 0.00 | 0.00 | 0.00 | 1015.1 | |
| 20260505021703 | 66 | 267 | 2.6 | 7.8 | 0.00 | 0.00 | 0.00 | 66 | 1017.1 |
| 20260505021627 | 0 | 10 | 0.0 | 0.0 | 0.00 | 0.00 | 0.00 | 1015.3 | |
| 20260505021545 | 55 | 259 | 4.3 | 9.6 | 0.00 | 0.16 | 0.00 | 83 | 1012.3 |
| 20260505021124 | 0 | 14 | 0.0 | 0.0 | 0.00 | 0.00 | 0.00 | 1015.2 | |
| 20260505020703 | 66 | 303 | 2.6 | 5.2 | 0.00 | 0.00 | 0.00 | 66 | 1017.2 |
| 20260505020620 | 0 | 6 | 0.0 | 0.0 | 0.00 | 0.00 | 0.00 | 1015.1 | |
| 20260505020204 | 66 | 307 | 2.6 | 7.8 | 0.00 | 0.00 | 0.00 | 66 | 1017.4 |
| 20260505020116 | 0 | 52 | 0.0 | 0.0 | 0.00 | 0.00 | 0.00 | 1015.1 | |
| 20260505020057 | 55 | 293 | 6.1 | 12.2 | 0.00 | 0.16 | 0.00 | 83 | 1012.3 |
| 20260505015703 | 66 | 252 | 2.6 | 7.0 | 0.00 | 0.00 | 0.00 | 66 | 1017.3 |
| 20260505015613 | 0 | 17 | 0.0 | 0.0 | 0.00 | 0.00 | 0.00 | 1015.3 | |
| 20260505015203 | 66 | 247 | 3.5 | 7.0 | 0.00 | 0.00 | 0.00 | 66 | 1017.2 |
| 20260505015110 | 0 | 247 | 0.9 | 0.9 | 0.00 | 0.00 | 0.00 | 1015.2 | |
| 20260505014704 | 66 | 291 | 1.7 | 7.8 | 0.00 | 0.00 | 0.00 | 66 | 1017.2 |
| 20260505014607 | 0 | 0 | 0.0 | 0.0 | 0.00 | 0.00 | 0.00 | 1015.2 | |
| 20260505014542 | 54 | 305 | 4.3 | 8.7 | 0.00 | 0.16 | 0.00 | 83 | 1012.3 |
| 20260505014204 | 66 | 331 | 2.6 | 7.8 | 0.00 | 0.00 | 0.00 | 66 | 1017.2 |
| 20260505014104 | 0 | 329 | 0.0 | 0.0 | 0.00 | 0.00 | 0.00 | 1015.1 | |
| 20260505013601 | 0 | 23 | 0.0 | 0.0 | 0.00 | 0.00 | 0.00 | 1015.0 | |
| 20260505013203 | 67 | 128 | 2.6 | 8.7 | 0.00 | 0.00 | 0.00 | 66 | 1017.1 |
| 20260505013058 | 0 | 343 | 0.0 | 0.0 | 0.00 | 0.00 | 0.00 | 1015.0 | |
| 20260505013042 | 55 | 268 | 3.5 | 10.4 | 0.00 | 0.16 | 0.00 | 83 | 1012.5 |
| 20260505012703 | 66 | 244 | 2.6 | 8.7 | 0.00 | 0.00 | 0.00 | 66 | 1017.0 |
| 20260505012556 | 0 | 354 | 0.0 | 0.0 | 0.00 | 0.00 | 0.00 | 1015.2 | |
| 20260505012204 | 67 | 20 | 4.3 | 7.8 | 0.00 | 0.00 | 0.00 | 66 | 1016.8 |
| 20260505012053 | 0 | 230 | 0.9 | 0.9 | 0.00 | 0.00 | 0.00 | 1015.2 | |
| 20260505011704 | 67 | 163 | 2.6 | 4.3 | 0.00 | 0.00 | 0.00 | 66 | 1016.8 |
| 20260505011548 | 0 | 22 | 0.0 | 0.0 | 0.00 | 0.00 | 0.00 | 1015.3 | |
| 20260505011539 | 55 | 288 | 5.2 | 9.6 | 0.00 | 0.16 | 0.00 | 83 | 1012.7 |
| 20260505011204 | 67 | 273 | 1.7 | 10.4 | 0.00 | 0.00 | 0.00 | 66 | 1016.8 |
| 20260505011046 | 0 | 24 | 0.0 | 0.0 | 0.00 | 0.00 | 0.00 | 1015.4 | |
| 20260505010703 | 67 | 98 | 3.5 | 10.4 | 0.00 | 0.00 | 0.00 | 65 | 1016.6 |
| 20260505010541 | 0 | 18 | 0.0 | 0.0 | 0.00 | 0.00 | 0.00 | 1015.1 | |
| 20260505010203 | 67 | 57 | 1.7 | 5.2 | 0.00 | 0.00 | 0.00 | 66 | 1016.4 |
| 20260505010043 | 55 | 300 | 5.2 | 9.6 | 0.00 | 0.16 | 0.00 | 84 | 1012.8 |
| 20260505010038 | 0 | 123 | 0.9 | 0.9 | 0.00 | 0.00 | 0.00 | 1015.5 | |
| 20260505005534 | 0 | 49 | 0.0 | 0.9 | 0.00 | 0.00 | 0.00 | 1015.5 | |
| 20260505005204 | 67 | 77 | 2.6 | 7.8 | 0.00 | 0.00 | 0.00 | 65 | 1016.4 |
| 20260505005032 | 0 | 358 | 0.0 | 0.0 | 0.00 | 0.00 | 0.00 | 1015.7 | |
| 20260505004703 | 67 | 172 | 2.6 | 10.4 | 0.00 | 0.00 | 0.00 | 65 | 1016.2 |
| 20260505004556 | 55 | 267 | 4.3 | 7.8 | 0.00 | 0.16 | 0.00 | 85 | 1012.9 |
| 20260505004529 | 0 | 323 | 0.0 | 0.0 | 0.00 | 0.00 | 0.00 | 1015.7 | |
| 20260505004204 | 67 | 114 | 4.3 | 7.8 | 0.00 | 0.00 | 0.00 | 65 | 1016.3 |
| 20260505004026 | 0 | 0 | 0.0 | 0.0 | 0.00 | 0.00 | 0.00 | 1015.8 | |
| 20260505003703 | 68 | 276 | 2.6 | 10.4 | 0.00 | 0.00 | 0.00 | 64 | 1016.1 |
| 20260505003523 | 0 | 339 | 0.0 | 0.0 | 0.00 | 0.00 | 0.00 | 1015.7 | |
| 20260505003036 | 54 | 300 | 4.3 | 7.8 | 0.00 | 0.16 | 0.00 | 85 | 1013.0 |
| 20260505003020 | 0 | 100 | 0.9 | 1.7 | 0.00 | 0.00 | 0.00 | 1015.6 | |
| 20260505002704 | 68 | 60 | 1.7 | 6.1 | 0.00 | 0.00 | 0.00 | 63 | 1016.1 |
| 20260505002520 | 0 | 252 | 0.9 | 1.7 | 0.00 | 0.00 | 0.00 | 1015.6 | |
| 20260505002204 | 68 | 185 | 2.6 | 7.0 | 0.00 | 0.00 | 0.00 | 63 | 1016.0 |
| 20260505002015 | 0 | 245 | 0.9 | 0.9 | 0.00 | 0.00 | 0.00 | 1015.5 | |
| 20260505001537 | 54 | 298 | 2.6 | 7.0 | 0.00 | 0.16 | 0.00 | 83 | 1013.1 |
| 20260505001512 | 0 | 8 | 0.0 | 0.9 | 0.00 | 0.00 | 0.00 | 1015.4 | |
| 20260505001009 | 0 | 262 | 1.7 | 1.7 | 0.00 | 0.00 | 0.00 | 1015.5 | |
| 20260505000704 | 69 | 211 | 1.7 | 8.7 | 0.00 | 0.00 | 0.00 | 62 | 1015.9 |
| 20260505000506 | 0 | 116 | 0.9 | 0.9 | 0.00 | 0.00 | 0.00 | 1015.6 | |
| 20260505000204 | 69 | 299 | 3.5 | 7.8 | 0.00 | 0.00 | 0.00 | 62 | 1015.8 |
| 20260505000036 | 55 | 306 | 3.5 | 8.7 | 0.00 | 0.16 | 0.00 | 83 | 1013.1 |
| 20260505000004 | 0 | 272 | 1.7 | 1.7 | 0.00 | 0.00 | 0.00 | 1015.6 | |
| 20260504235703 | 69 | 123 | 4.3 | 13.9 | 0.00 | 0.00 | 0.00 | 61 | 1015.6 |
| 20260504235500 | 0 | 181 | 0.0 | 0.9 | 0.00 | 0.00 | 0.00 | 1015.4 | |
| 20260504235204 | 69 | 146 | 5.2 | 13.9 | 0.00 | 0.00 | 0.00 | 61 | 1015.7 |
| 20260504234956 | 0 | 167 | 2.6 | 4.3 | 0.00 | 0.00 | 0.00 | 1015.5 | |
| 20260504234704 | 69 | 169 | 3.5 | 10.4 | 0.00 | 0.00 | 0.00 | 60 | 1015.5 |
| 20260504234530 | 55 | 315 | 6.1 | 10.4 | 0.00 | 0.16 | 0.00 | 83 | 1013.1 |
| 20260504234454 | 0 | 102 | 4.3 | 7.0 | 0.00 | 0.00 | 0.00 | 1015.6 | |
| 20260504234204 | 70 | 163 | 3.5 | 11.3 | 0.00 | 0.00 | 0.00 | 60 | 1015.6 |
| 20260504233950 | 0 | 333 | 0.0 | 0.9 | 0.00 | 0.00 | 0.00 | 1015.8 | |
| 20260504233703 | 70 | 136 | 4.3 | 11.3 | 0.00 | 0.00 | 0.00 | 60 | 1015.5 |
| 20260504233446 | 0 | 225 | 0.9 | 0.9 | 0.00 | 0.00 | 0.00 | 1015.6 | |
| 20260504233204 | 70 | 154 | 3.5 | 6.1 | 0.00 | 0.00 | 0.00 | 59 | 1015.4 |
| 20260504233027 | 55 | 309 | 3.5 | 8.7 | 0.00 | 0.16 | 0.00 | 83 | 1013.3 |
| 20260504232943 | 0 | 231 | 0.9 | 0.9 | 0.00 | 0.00 | 0.00 | 1015.7 | |
| 20260504232704 | 70 | 102 | 2.6 | 6.1 | 0.00 | 0.00 | 0.00 | 59 | 1015.4 |
| 20260504232440 | 0 | 242 | 2.6 | 4.3 | 0.00 | 0.00 | 0.00 | 1015.8 | |
| 20260504232204 | 71 | 346 | 2.6 | 5.2 | 0.00 | 0.00 | 0.00 | 59 | 1015.4 |
| 20260504231937 | 0 | 358 | 0.9 | 1.7 | 0.00 | 0.00 | 0.00 | 1015.9 | |
| 20260504231703 | 71 | 287 | 1.7 | 7.0 | 0.00 | 0.00 | 0.00 | 58 | 1015.2 |
| 20260504231524 | 56 | 324 | 6.1 | 9.6 | 0.00 | 0.16 | 0.00 | 83 | 1013.3 |
| 20260504231433 | 0 | 334 | 0.9 | 0.9 | 0.00 | 0.00 | 0.00 | 1015.6 | |
| 20260504231204 | 71 | 96 | 1.7 | 10.4 | 0.00 | 0.00 | 0.00 | 57 | 1015.2 |
| 20260504230930 | 0 | 129 | 3.5 | 5.2 | 0.00 | 0.00 | 0.00 | 1015.5 | |
| 20260504230703 | 72 | 197 | 2.6 | 6.1 | 0.00 | 0.00 | 0.00 | 56 | 1015.3 |
| 20260504230427 | 0 | 165 | 0.9 | 0.9 | 0.00 | 0.00 | 0.00 | 1015.5 | |
| 20260504230204 | 72 | 134 | 4.3 | 7.8 | 0.00 | 0.00 | 0.00 | 55 | 1015.3 |
| 20260504230023 | 56 | 306 | 5.2 | 11.3 | 0.00 | 0.16 | 0.00 | 84 | 1013.4 |
| 20260504225926 | 0 | 229 | 1.7 | 1.7 | 0.00 | 0.00 | 0.00 | 1015.5 | |
| 20260504225703 | 73 | 325 | 3.5 | 8.7 | 0.00 | 0.00 | 0.00 | 54 | 1015.3 |
| 20260504225422 | 0 | 265 | 1.7 | 1.7 | 0.00 | 0.00 | 0.00 | 1015.5 | |
| 20260504225203 | 73 | 282 | 4.3 | 11.3 | 0.00 | 0.00 | 0.00 | 54 | 1015.0 |
| 20260504224920 | 0 | 133 | 1.7 | 1.7 | 0.00 | 0.00 | 0.00 | 1015.4 | |
| 20260504224704 | 74 | 86 | 4.3 | 11.3 | 0.00 | 0.00 | 0.00 | 52 | 1015.0 |
| 20260504224526 | 56 | 290 | 7.0 | 12.2 | 0.00 | 0.16 | 0.00 | 84 | 1013.6 |
| 20260504224416 | 0 | 279 | 2.6 | 2.6 | 0.00 | 0.00 | 0.00 | 1015.8 | |
| 20260504223913 | 0 | 15 | 1.7 | 1.7 | 0.00 | 0.00 | 0.00 | 1015.5 | |
| 20260504223408 | 0 | 281 | 1.7 | 1.7 | 0.00 | 0.00 | 0.00 | 1015.5 | |
| 20260504223203 | 75 | 284 | 4.3 | 11.3 | 0.00 | 0.00 | 0.00 | 47 | 1014.8 |
| 20260504223019 | 56 | 313 | 3.5 | 7.8 | 0.00 | 0.16 | 0.00 | 85 | 1013.6 |
| 20260504222905 | 0 | 143 | 2.6 | 2.6 | 0.00 | 0.00 | 0.00 | 1015.5 | |
| 20260504222704 | 76 | 337 | 4.3 | 11.3 | 0.00 | 0.00 | 0.00 | 43 | 1014.7 |
| 20260504222402 | 0 | 280 | 1.7 | 1.7 | 0.00 | 0.00 | 0.00 | 1015.5 | |
| 20260504222203 | 76 | 340 | 2.6 | 7.8 | 0.00 | 0.00 | 0.00 | 40 | 1014.8 |
| 20260504221900 | 0 | 161 | 4.3 | 7.8 | 0.00 | 0.00 | 0.00 | 1015.5 | |
| 20260504221704 | 76 | 291 | 4.3 | 7.8 | 0.00 | 0.00 | 0.00 | 40 | 1014.8 |
| 20260504221517 | 56 | 338 | 4.3 | 7.8 | 0.00 | 0.16 | 0.00 | 85 | 1013.7 |
| 20260504221356 | 0 | 4 | 0.9 | 0.9 | 0.00 | 0.00 | 0.00 | 1015.3 | |
| 20260504220854 | 0 | 3 | 0.9 | 1.7 | 0.00 | 0.00 | 0.00 | 1015.4 | |
| 20260504220703 | 77 | 303 | 5.2 | 11.3 | 0.00 | 0.00 | 0.00 | 39 | 1014.7 |
| 20260504220350 | 0 | 147 | 1.7 | 2.6 | 0.00 | 0.00 | 0.00 | 1015.5 | |
| 20260504220014 | 56 | 318 | 4.3 | 9.6 | 0.00 | 0.16 | 0.00 | 84 | 1013.7 |
| 20260504215848 | 0 | 174 | 5.2 | 6.1 | 0.00 | 0.00 | 0.00 | 1015.5 | |
| 20260504215704 | 76 | 306 | 5.2 | 12.2 | 0.00 | 0.00 | 0.00 | 40 | 1014.8 |
| 20260504215344 | 0 | 16 | 0.9 | 1.7 | 0.00 | 0.00 | 0.00 | 1015.5 | |
| 20260504215203 | 76 | 209 | 4.3 | 11.3 | 0.00 | 0.00 | 0.00 | 40 | 1014.8 |
| 20260504214840 | 0 | 24 | 0.0 | 0.0 | 0.00 | 0.00 | 0.00 | 1015.6 | |
| 20260504214704 | 76 | 237 | 4.3 | 7.8 | 0.00 | 0.00 | 0.00 | 40 | 1014.8 |
| 20260504214513 | 57 | 313 | 6.1 | 11.3 | 0.00 | 0.16 | 0.16 | 83 | 1013.7 |
| 20260504214337 | 0 | 97 | 1.7 | 1.7 | 0.00 | 0.00 | 0.00 | 1015.6 | |
| 20260504214204 | 77 | 312 | 6.1 | 12.2 | 0.00 | 0.00 | 0.00 | 39 | 1014.9 |
| 20260504213834 | 0 | 196 | 3.5 | 5.2 | 0.00 | 0.00 | 0.00 | 1015.5 | |
| 20260504213330 | 0 | 352 | 1.7 | 1.7 | 0.00 | 0.00 | 0.00 | 1015.5 | |
| 20260504213204 | 77 | 236 | 2.6 | 7.8 | 0.00 | 0.00 | 0.00 | 40 | 1014.9 |
| 20260504213030 | 57 | 345 | 6.1 | 9.6 | 0.00 | 0.16 | 0.16 | 82 | 1013.9 |
| 20260504212827 | 0 | 190 | 2.6 | 2.6 | 0.00 | 0.00 | 0.00 | 1015.4 | |
| 20260504212703 | 78 | 144 | 1.7 | 7.8 | 0.00 | 0.00 | 0.00 | 40 | 1014.9 |
| 20260504212323 | 0 | 277 | 3.5 | 4.3 | 0.00 | 0.00 | 0.00 | 1015.5 | |
| 20260504212203 | 78 | 216 | 2.6 | 6.1 | 0.00 | 0.00 | 0.00 | 39 | 1015.0 |
| 20260504211821 | 0 | 181 | 3.5 | 5.2 | 0.00 | 0.00 | 0.00 | 1015.2 | |
| 20260504211703 | 78 | 63 | 3.5 | 7.0 | 0.00 | 0.00 | 0.00 | 39 | 1015.0 |
| 20260504211515 | 57 | 324 | 7.0 | 12.2 | 0.00 | 0.16 | 0.16 | 82 | 1013.9 |
| 20260504211317 | 0 | 213 | 1.7 | 2.6 | 0.00 | 0.00 | 0.00 | 1015.6 | |
| 20260504211204 | 79 | 218 | 4.3 | 8.7 | 0.00 | 0.00 | 0.00 | 38 | 1015.0 |
| 20260504210815 | 0 | 261 | 2.6 | 2.6 | 0.00 | 0.00 | 0.00 | 1015.5 | |
| 20260504210703 | 78 | 171 | 3.5 | 7.8 | 0.00 | 0.00 | 0.00 | 38 | 1015.0 |
| 20260504210312 | 0 | 241 | 2.6 | 4.3 | 0.00 | 0.00 | 0.00 | 1015.5 | |
| 20260504210204 | 78 | 158 | 4.3 | 8.7 | 0.00 | 0.00 | 0.00 | 38 | 1015.0 |
| 20260504210012 | 57 | 311 | 6.1 | 12.2 | 0.00 | 0.16 | 0.16 | 83 | 1014.0 |
| 20260504205809 | 0 | 269 | 1.7 | 2.6 | 0.00 | 0.00 | 0.00 | 1015.7 | |
| 20260504205704 | 79 | 219 | 4.3 | 8.7 | 0.00 | 0.00 | 0.00 | 38 | 1015.0 |
| 20260504205306 | 0 | 252 | 4.3 | 6.1 | 0.00 | 0.00 | 0.00 | 1015.7 | |
| 20260504205203 | 78 | 353 | 4.3 | 11.3 | 0.00 | 0.00 | 0.00 | 39 | 1014.9 |
| 20260504204804 | 0 | 233 | 3.5 | 5.2 | 0.00 | 0.00 | 0.00 | 1015.7 | |
| 20260504204704 | 79 | 133 | 4.3 | 11.3 | 0.00 | 0.00 | 0.00 | 38 | 1015.0 |
| 20260504204512 | 57 | 295 | 7.0 | 12.2 | 0.00 | 0.16 | 0.16 | 83 | 1014.0 |
| 20260504204303 | 0 | 208 | 1.7 | 2.6 | 0.00 | 0.00 | 0.00 | 1015.5 | |
| 20260504204204 | 79 | 254 | 2.6 | 7.8 | 0.00 | 0.00 | 0.00 | 38 | 1015.1 |
| 20260504203802 | 0 | 9 | 0.0 | 0.0 | 0.00 | 0.00 | 0.00 | 1015.4 | |
| 20260504203704 | 78 | 279 | 4.3 | 10.4 | 0.00 | 0.00 | 0.00 | 39 | 1015.0 |
| 20260504203258 | 0 | 197 | 6.1 | 7.0 | 0.00 | 0.00 | 0.00 | 1015.8 | |
| 20260504203204 | 78 | 325 | 4.3 | 14.8 | 0.00 | 0.00 | 0.00 | 39 | 1014.9 |
| 20260504203010 | 58 | 303 | 8.7 | 13.0 | 0.00 | 0.16 | 0.16 | 83 | 1013.8 |
| 20260504202759 | 0 | 79 | 0.9 | 0.9 | 0.00 | 0.00 | 0.00 | 1015.6 | |
| 20260504202704 | 79 | 212 | 2.6 | 7.0 | 0.00 | 0.00 | 0.00 | 38 | 1015.1 |
| 20260504202256 | 0 | 7 | 1.7 | 1.7 | 0.00 | 0.00 | 0.00 | 1015.7 | |
| 20260504202204 | 78 | 273 | 3.5 | 10.4 | 0.00 | 0.00 | 0.00 | 38 | 1015.2 |
| 20260504201753 | 0 | 15 | 0.9 | 0.9 | 0.00 | 0.00 | 0.00 | 1015.7 | |
| 20260504201509 | 57 | 296 | 6.1 | 13.9 | 0.00 | 0.16 | 0.16 | 83 | 1013.7 |
| 20260504201250 | 0 | 173 | 1.7 | 1.7 | 0.00 | 0.00 | 0.00 | 1015.8 | |
| 20260504201204 | 77 | 112 | 3.5 | 11.3 | 0.00 | 0.00 | 0.00 | 40 | 1015.1 |
| 20260504200748 | 0 | 208 | 2.6 | 4.3 | 0.00 | 0.00 | 0.00 | 1016.0 | |
| 20260504200704 | 78 | 291 | 6.1 | 11.3 | 0.00 | 0.00 | 0.00 | 39 | 1015.1 |
| 20260504200243 | 0 | 352 | 1.7 | 1.7 | 0.00 | 0.00 | 0.00 | 1015.9 | |
| 20260504200204 | 80 | 251 | 3.5 | 7.0 | 0.00 | 0.00 | 0.00 | 39 | 1015.1 |